N8DH Weather Reports


Display with metric or nautical units.
time (UTC)temp
F
wind
direction
speed
MPH
gust
MPH
rain 1hr
in
rain 24hr
in
rain mn
in
humidity
%
barometer
mb
20260905193115 76 360 3.0 7.0 0.00 0.07 0.07 75 1006.8
20260905191514 77 360 4.0 8.0 0.00 0.07 0.07 78 1006.7
20260905190100 77 68 2.0 7.0 0.00 0.07 0.07 80 1006.6
20260905184636 76 27 3.0 9.0 0.00 0.07 0.07 81 1006.7
20260905183005 77 45 3.0 9.0 0.00 0.07 0.07 82 1006.8
20260905181542 76 313 2.0 8.0 0.00 0.07 0.07 84 1006.9
20260905180112 76 32 4.0 8.0 0.00 0.07 0.07 82 1006.8
20260905174647 76 45 4.0 6.0 0.00 0.09 0.07 85 1006.9
20260905173059 76 73 2.0 6.0 0.00 0.09 0.07 86 1007.0
20260905171635 75 14 2.0 7.0 0.00 0.09 0.07 88 1007.0
20260905170012 76 5 3.0 7.0 0.00 0.09 0.07 88 1007.1
20260905164542 75 44 4.0 11.0 0.00 0.09 0.07 88 1007.0
20260905163106 76 33 1.0 2.0 0.00 0.09 0.07 87 1007.0
20260905161506 76 42 0.0 2.0 0.00 0.09 0.07 89 1007.2
20260905160020 75 51 0.0 2.0 0.00 0.11 0.07 89 1007.2
20260905154556 75 256 0.0 2.0 0.00 0.11 0.07 89 1007.2
20260905153142 75 39 0.0 2.0 0.00 0.11 0.07 90 1007.2
20260905151522 74 159 0.0 2.0 0.00 0.11 0.07 91 1007.1
20260905150106 74 163 0.0 2.0 0.00 0.11 0.07 92 1007.0
20260905144637 74 175 0.0 2.0 0.00 0.12 0.07 91 1006.8
20260905143052 74 67 0.0 2.0 0.00 0.12 0.07 90 1006.8
20260905141637 73 24 0.0 3.0 0.00 0.12 0.07 92 1006.6
20260905140052 73 74 1.0 3.0 0.00 0.12 0.07 93 1006.5
20260905134637 72 153 0.0 2.0 0.00 0.16 0.07 96 1006.8
20260905133046 72 121 0.0 1.0 0.01 0.16 0.07 96 1006.8
20260905131620 72 94 0.0 2.0 0.01 0.16 0.07 97 1007.0
20260905130024 71 142 0.0 2.0 0.01 0.21 0.07 97 1007.1
20260905124603 70 268 0.0 1.0 0.01 0.21 0.07 97 1006.9
20260905123039 70 229 0.0 2.0 0.00 0.20 0.06 97 1006.8
20260905121600 69 228 0.0 2.0 0.00 0.20 0.06 97 1006.8
20260905120013 69 225 0.0 2.0 0.00 0.21 0.06 97 1006.8
20260905114604 69 225 0.0 2.0 0.00 0.21 0.06 97 1006.4
20260905113038 69 288 0.0 2.0 0.00 0.21 0.06 97 1006.2
20260905111611 69 288 0.0 2.0 0.00 0.21 0.06 97 1006.2
20260905110145 69 355 0.0 2.0 0.00 0.21 0.06 97 1006.3
20260905104536 69 205 0.0 2.0 0.00 0.21 0.06 97 1006.6
20260905103108 69 205 0.0 0.0 0.00 0.21 0.06 97 1007.0
20260905101539 69 205 0.0 2.0 0.00 0.21 0.06 97 1007.1
20260905100104 69 205 0.0 3.0 0.00 0.21 0.06 97 1007.5
20260905094524 69 228 1.0 2.0 0.00 0.21 0.06 97 1007.6
20260905093131 69 235 0.0 2.0 0.00 0.21 0.06 97 1007.2
20260905091644 68 217 1.0 2.0 0.00 0.21 0.06 97 1006.8
20260905090019 68 287 0.0 2.0 0.00 0.21 0.06 97 1006.4
20260905084545 68 182 0.0 0.0 0.00 0.21 0.06 97 1006.2
20260905083114 68 182 0.0 0.0 0.00 0.21 0.06 97 1006.3
20260905081512 68 182 0.0 1.0 0.00 0.21 0.06 97 1005.9
20260905080045 68 182 0.0 2.0 0.00 0.21 0.06 97 1005.6
20260905074603 69 182 0.0 2.0 0.00 0.21 0.06 97 1006.1
20260905073143 69 178 0.0 1.0 0.00 0.21 0.06 97 1006.0
20260905071521 68 178 0.0 2.0 0.00 0.21 0.06 97 1005.6
20260905070111 68 192 0.0 0.0 0.00 0.21 0.06 97 1006.0
20260905064531 68 192 0.0 2.0 0.00 0.21 0.06 97 1006.1
20260905063106 68 58 0.0 2.0 0.00 0.21 0.06 96 1006.2
20260905061539 69 58 0.0 2.0 0.00 0.21 0.06 96 1006.5
20260905060134 69 58 0.0 1.0 0.00 0.21 0.06 96 1006.6
20260905054656 70 58 0.0 2.0 0.00 0.21 0.06 96 1007.0
20260905053001 70 304 0.0 2.0 0.00 0.21 0.06 96 1007.2
20260905051539 70 304 0.0 2.0 0.00 0.21 0.06 97 1007.2
20260905050109 70 28 0.0 2.0 0.05 0.21 0.06 97 1007.2
20260905044503 70 28 0.0 2.0 0.06 0.21 0.06 97 1007.3
20260905043110 70 28 0.0 0.0 0.06 0.21 0.06 97 1007.5
20260905041638 70 28 0.0 2.0 0.06 0.21 0.06 97 1007.6
20260905040056 70 259 0.0 2.0 0.00 0.15 0.00 97 1007.9
20260905034639 69 259 0.0 2.0 0.00 0.15 0.15 96 1007.7
20260905033143 69 259 0.0 2.0 0.00 0.15 0.15 96 1007.5
20260905031604 68 259 0.0 2.0 0.00 0.15 0.15 96 1007.5
20260905030139 69 259 0.0 0.0 0.00 0.15 0.15 96 1007.5
20260905024644 69 259 0.0 0.0 0.00 0.15 0.15 96 1007.4
20260905023025 70 259 0.0 0.0 0.00 0.15 0.15 95 1007.5
20260905021603 70 259 0.0 0.0 0.00 0.15 0.15 96 1007.5
20260905020137 71 259 0.0 0.0 0.00 0.15 0.15 96 1007.5
20260905014650 71 259 0.0 0.0 0.00 0.15 0.15 96 1007.3
20260905013012 71 259 0.0 0.0 0.00 0.15 0.15 95 1007.5
20260905011605 72 259 0.0 2.0 0.00 0.15 0.15 95 1007.6
20260905010139 72 259 0.0 2.0 0.00 0.15 0.15 95 1007.5
20260905004544 72 259 0.0 2.0 0.00 0.15 0.15 95 1007.4
20260905003114 72 259 0.0 2.0 0.00 0.15 0.15 95 1007.4
20260905001646 72 258 0.0 0.0 0.00 0.15 0.15 94 1007.3
20260905000138 73 259 0.0 2.0 0.00 0.15 0.15 93 1007.5
20260904234648 74 259 0.0 2.0 0.00 0.20 0.15 91 1007.5
20260904233020 75 209 0.0 1.0 0.00 0.20 0.15 90 1007.4
20260904231604 76 209 0.0 1.0 0.00 0.20 0.15 87 1007.7
20260904230059 76 246 0.0 2.0 0.00 0.96 0.15 86 1007.6
20260904224608 76 200 0.0 3.0 0.00 0.96 0.15 87 1007.2
20260904223146 76 59 2.0 3.0 0.00 0.96 0.15 87 1006.7
20260904221501 76 239 0.0 2.0 0.00 0.96 0.15 87 1007.2
20260904220156 76 239 0.0 2.0 0.00 0.96 0.15 84 1007.2
20260904214522 76 247 0.0 2.0 0.00 0.96 0.15 85 1006.7
20260904213059 77 205 0.0 2.0 0.00 0.96 0.15 84 1006.6
20260904211639 76 163 0.0 2.0 0.00 0.96 0.15 84 1006.6
20260904210031 76 95 1.0 2.0 0.00 0.96 0.15 83 1006.3
20260904204602 76 95 0.0 3.0 0.00 0.96 0.15 84 1006.1
20260904203141 76 112 2.0 4.0 0.00 0.96 0.15 85 1005.6
20260904201522 76 120 3.0 8.0 0.00 0.96 0.15 83 1005.6
20260904200048 76 156 1.0 5.0 0.00 0.96 0.15 85 1006.0
20260904194641 76 200 2.0 6.0 0.00 0.96 0.15 86 1006.6